Volver al catálogo

FENGYUN 1C DEB

LostPO
NORAD 31676·DEBRIS·🇨🇳 China

Lanzado May 10, 1999 desde Taiyuan Satellite Launch Center

Loading…

Próximos Pases (próximas 24 horas)

TLE

ObsoletoSource: Space-Track

Época: Aug 27, 2018, 09:06 UTC

1 31676U 99025CCJ 18239.37969797 -.00000082  00000-0 -63416-4 0  9994
2 31676  98.6003 305.4537 0414304  18.9593 342.6457 13.31380576547463

Sigue FENGYUN 1C DEB en tiempo real con AllMySat

Download on the App Store